sat.trackr.live / text

‹ back to catalog

GPS BIIR-5 (PRN 22)

NORAD 26407 · 2000-040A

PAYLOAD ACTIVE UNKNOWN

§ Identity

Operator
Country
US
Launch date
2000-07-16
Launch site
AFETR
Launch vehicle
Mass (kg)
RCS (m²)
5.24

Purposes: nav

External: N2YO · Heavens-Above · Gunter

§ Orbital elements

Epoch: 2026-05-24T14:22:37.969248Z

Period
718.00 min
Inclination
54.8549°
Eccentricity
0.0121341
Mean motion
2.00557498 rev/d
Perigee alt
19,860.5 km
Apogee alt
20,505.0 km
Semi-major
26,560.9 km
B*
0.0000e+0
RAAN
216.0993°
Arg perigee
302.3703°
Mean anomaly
230.0563°
Rev number
18,947

§ Raw data

GPS BIIR-5  (PRN 22)1 26407U 00040A   26144.59905057 -.00000014  00000+0  00000+0 0  99942 26407  54.8549 216.0993 0121341 302.3703 230.0563  2.00557498189474

JSON: /api/v1/satellites/26407 · /tle

For live sub-satellite position, see the globe view (requires WebGL).

§ Visibility from observer

Set your observer location to see the next 7 days of passes ≥ 10°. The values pass through the URL so the page stays shareable.

No JS? Fill the form by hand. The geolocation button needs JavaScript.